Cleveland Burke, OH

3:39 PM EDT on July 24, 2017 (GMT -0400)
Burke Lakefront

Weather History for KBKL - April, 2013

Change the Weather History Date:

Wednesday, April 3, 2013

  Actual Average Record
Temperature  
Mean Temperature 33 °F -  
Max Temperature 36 °F 50 °F 84 °F (2007)
Min Temperature 30 °F 36 °F 28 °F (2016)
Degree Days  
Heating Degree Days 32    
Moisture  
Dew Point 16 °F    
Average Humidity 50    
Maximum Humidity 64    
Minimum Humidity 40    
Precipitation  
Precipitation 0.00 in - - ()
Sea Level Pressure  
Sea Level Pressure 30.36 in    
Wind  
Wind Speed 12 mph (NNW)    
Max Wind Speed 20 mph    
Max Gust Speed 25 mph    
Visibility 10 miles    
Events      
Averages and records for this station are not official NWS values.
T = Trace of Precipitation, MM = Missing Value Source: NWS Daily Summary

Daily Weather History Graph

Daily Weather History Graph

Search for Another Location

Airport or City:

Trip Planner

Search our weather history database for the weather conditions in past years. The results will help you decide how hot, cold, wet, or windy it might be!

Date:

Astronomy

Apr. 03, 2013 Rise Set
Actual Time 7:06 AM EDT 7:54 PM EDT
Civil Twilight 6:37 AM EDT 8:22 PM EDT
Nautical Twilight 6:04 AM EDT 8:55 PM EDT
Astronomical Twilight 5:30 AM EDT 9:30 PM EDT
Moon 2:50 AM EDT (4/3) 1:00 PM EDT (4/3)
Length of Visible Light 13h 44m
Length of Day
12h 48m
Last Quarter, 45% of the Moon is Illuminated
Apr 3
Last Quarter
Apr 10
New
Apr 18
First Quarter
Apr 25
Full
May 2
Last Quarter

Hourly Weather History & Observations

Time (EDT) Temp. Windchill Dew Point Humidity Pressure Visibility Wind Dir Wind Speed Gust Speed Precip Events Conditions
12:53 AM 34.0 °F 25.0 °F 23.0 °F 64% 30.22 in 10.0 mi NW 12.7 mph - N/A   Clear
1:53 AM 33.1 °F 21.5 °F 19.9 °F 59% 30.23 in 10.0 mi North 19.6 mph 25.3 mph N/A   Clear
2:53 AM 32.0 °F 21.2 °F 17.1 °F 54% 30.25 in 10.0 mi North 16.1 mph - N/A   Clear
3:53 AM 30.9 °F 20.2 °F 15.1 °F 52% 30.25 in 10.0 mi North 15.0 mph - N/A   Clear
4:53 AM 30.9 °F 22.8 °F 15.1 °F 52% 30.26 in 10.0 mi NNW 9.2 mph - N/A   Clear
5:53 AM 30.9 °F 21.7 °F 16.0 °F 54% 30.27 in 10.0 mi NW 11.5 mph - N/A   Clear
6:53 AM 30.9 °F 21.2 °F 15.1 °F 52% 30.29 in 10.0 mi NW 12.7 mph - N/A   Clear
7:53 AM 32.0 °F 23.6 °F 16.0 °F 52% 30.31 in 10.0 mi NW 10.4 mph 20.7 mph N/A   Clear
8:53 AM 34.0 °F 24.6 °F 19.0 °F 54% 30.31 in 10.0 mi NW 13.8 mph - N/A   Clear
9:53 AM 33.1 °F 23.9 °F 21.0 °F 61% 30.33 in 10.0 mi NNW 12.7 mph - N/A   Clear
10:53 AM 33.1 °F 23.9 °F 19.9 °F 59% 30.37 in 10.0 mi NNW 12.7 mph - N/A   Scattered Clouds
11:53 AM 34.0 °F 23.8 °F 19.0 °F 54% 30.40 in 10.0 mi NW 16.1 mph - N/A   Scattered Clouds
12:53 PM 34.0 °F 23.8 °F 17.1 °F 50% 30.42 in 10.0 mi NW 16.1 mph - N/A   Partly Cloudy
1:53 PM 35.1 °F 25.2 °F 17.1 °F 48% 30.42 in 10.0 mi NNW 16.1 mph 24.2 mph N/A   Partly Cloudy
2:53 PM 36.0 °F 27.5 °F 17.1 °F 46% 30.43 in 10.0 mi NNW 12.7 mph - N/A   Clear
3:53 PM 36.0 °F 28.5 °F 16.0 °F 44% 30.43 in 10.0 mi NW 10.4 mph - N/A   Scattered Clouds
4:53 PM 35.1 °F 29.3 °F 14.0 °F 42% 30.43 in 10.0 mi NW 6.9 mph - N/A   Clear
5:53 PM 35.1 °F 30.1 °F 12.9 °F 40% 30.45 in 10.0 mi NNW 5.8 mph - N/A   Clear
6:53 PM 35.1 °F - 12.9 °F 40% 30.45 in 10.0 mi Calm Calm - N/A   Clear
7:53 PM 32.0 °F - 12.0 °F 44% 30.44 in 10.0 mi Calm Calm - N/A   Clear
8:53 PM 32.0 °F 27.5 °F 12.0 °F 44% 30.42 in 10.0 mi ESE 4.6 mph - N/A   Clear
9:53 PM 32.0 °F 27.5 °F 10.9 °F 42% 30.40 in 10.0 mi ESE 4.6 mph - N/A   Clear
10:53 PM 30.9 °F 27.5 °F 12.0 °F 46% 30.39 in 10.0 mi SSE 3.5 mph - N/A   Clear
11:53 PM 30.0 °F 25.2 °F 12.0 °F 47% 30.40 in 10.0 mi South 4.6 mph - N/A   Clear